STARS-EC

Last updated on Sun Apr 17 2022 00:02:04 GMT+0000 (Coordinated Universal Time)

1 47928U 98067SE 22105.70792890 .03725711 11861-4 18835-2 0 9996 2 47928 51.6211 255.2286 0013267 301.2810 58.6908 16.19672179 62005

Satellite not in orbit